User: anonymous   Login
Location: Abraham Lincoln Continuation High School
(33.9711°N, 117.3662°W)
Time: 01:22:28
(UTC+00:00)
Language:

YAOGAN 1 - Orbit

View from above orbital plane
View from above orbital plane
View from above satellite
View from above satellite

Ground track
Ground track

The orbit data is extracted from the following two-line orbital elements,

1 29092U 06015A   20328.81162694  .00000106  00000-0  19577-4 0  9996
2 29092  97.9287 352.0453 0001415  89.7965 270.3410 14.83104368788450
Epoch (UTC): 23 November 2020 19:28:44
Eccentricity: 0.0001415
inclination: 97.9287°
perigee height: 618 km
apogee height: 620 km
right ascension of ascending node: 352.0453°
argument of perigee: 89.7965°
revolutions per day: 14.83104368
mean anomaly at epoch: 270.3410°
orbit number at epoch: 78845

The dashed part of the orbit path shows where the satellite is in the earth's shadow,  

DLR